This is the latest recevied weather packets stored in our database for station/object KC5EZZ-2. If no packets are shown the sender has not sent any weather packets the latest 10 day(s).
| Time | Temp. | Humidity | Pressure | Rain* | Wind** | Luminosity | Snow |
|---|---|---|---|---|---|---|---|
| 1777626501 | 13.89° C | - | - | 0 mm | 4.02 m/s, 15° | - | - |
| 1777626199 | 13.89° C | - | - | 0 mm | 4.47 m/s, 27° | - | - |
| 1777625600 | 13.89° C | - | - | 0 mm | 4.47 m/s, 37° | - | - |
| 1777625297 | 14.44° C | - | - | 0 mm | 3.58 m/s, 20° | - | - |
| 1777624998 | 14.44° C | - | - | 0 mm | 3.58 m/s, 32° | - | - |
| 1777624698 | 14.44° C | - | - | 0 mm | 4.47 m/s, 31° | - | - |
| 1777624396 | 14.44° C | - | - | 0 mm | 4.92 m/s, 17° | - | - |
| 1777624096 | 14.44° C | - | - | 0 mm | 3.58 m/s, 35° | - | - |
| 1777623797 | 14.44° C | - | - | 0 mm | 4.02 m/s, 23° | - | - |
| 1777623195 | 14.44° C | - | - | 0 mm | 4.47 m/s, 15° | - | - |
| 1777622895 | 14.44° C | - | - | 0 mm | 4.02 m/s, 10° | - | - |
| 1777622593 | 14.44° C | - | - | 0 mm | 4.02 m/s, 24° | - | - |
| 1777622292 | 14.44° C | - | - | 0 mm | 3.58 m/s, 41° | - | - |
| 1777621993 | 14.44° C | - | - | 0 mm | 3.13 m/s, 7° | - | - |
| 1777621690 | 13.89° C | - | - | 0 mm | 2.68 m/s, 7° | - | - |
| 1777621091 | 14.44° C | - | - | 0 mm | 3.13 m/s, 20° | - | - |
| 1777620789 | 14.44° C | - | - | 0 mm | 4.47 m/s, 24° | - | - |
| 1777620489 | 14.44° C | - | - | 0 mm | 3.58 m/s, 8° | - | - |
| 1777620190 | 14.44° C | - | - | 0 mm | 3.13 m/s, 359° | - | - |
| 1777619888 | 14.44° C | - | - | 0 mm | 2.68 m/s, 10° | - | - |
| 1777618984 | 14.44° C | - | - | 0 mm | 3.13 m/s, 15° | - | - |
| 1777618685 | 14.44° C | - | - | 0 mm | 4.02 m/s, 28° | - | - |
| 1777618385 | 14.44° C | - | - | 0 mm | 3.58 m/s, 7° | - | - |
| 1777617783 | 14.44° C | - | - | 0 mm | 3.58 m/s, 3° | - | - |
| 1777617484 | 14.44° C | - | - | 0 mm | 3.58 m/s, 17° | - | - |
* Rain latest hour (hover to see other rain measurements)
** Current wind speed in m/s (hover to see current wind gust speed)